SCP
-0 0 0 0 0 0 0 0 0 0 0 0 0 0 0 0 0 0 0 0 0 0 0 0 0 0 0 0 0 0 0 0 0 0 0 0 0 0 0 0 0 0 0 0 0 0 0 0 0
0 0 0 0 0 0 0 0 0 0 0 0 0 0 0 0 0 0 0 0 0 0 0 0 0 0 0 0 0 0 0 0 0 0 0 0 0 0 0 0 0 0 0 0 0 0 0 0 0
0 0 0 0 0 0 0 0 0 0 0 0 0 0 0 0 0 0 0 0 0 0 0 0 0 0 0 0 0 0 0 0 0 0 0 0 0 0 0 0 0 0 0 0 0 0 0 0 0
0 0 0 0 0 0 0 0 0 0 0 0 0 0 0 0 0 0 0 0 0 0 0 0 0 0 0 0 0 0 0 0 0 0 0 0 0 0 0 0 0 0 0 0 0 0 0 0 0
0 0 0 0 0 0 0 0 0 0 0 0 0 0 0 0 0 0 0 0 0 0 0 0 0 0 0 0 0 0 0 0 0 0 0 0 0 0 0 0 0 0 0 0 0 0 0 0 0
0 0 0 0 0 0 0 0 0 0 0 0 0 0 0 0 0 0 0 0 0 0 0 0 0 0 0 0 0 0 0 0 0 0 0 0 0 0 0 0 0 0 0 0 0 0 0 0 0
0 0 0 0 0 0 0 0 0 0 0 0 0 0 0 0 0 0 0 0 0 0 0 0 0 0 0 0 0 0 0 0 0 0 0 0 0 0 0 0 0 0 0 0 0 0 0 0 0
0 0 0 0 0 0 0 0 0 0 0 0 0 0 0 0 0 0 0 0 0 0 0 0 0 0 0 0 0 0 0 0 0 0 0 0 0 0 0 0 0 0 0 0 0 0 0 0 0
0 0 0 0 0 0 0 0 0 0 0 0 0 0 0 0 0 0 0 0 0 0 0 0 0 0 0 0 0 0 0 0 0 0 0 0 0 0 0 0 0 0 0 0 0 0 0 0 0
0 0 0 0 0 0 0 0 0 0 0 0 0 0 0 0 0 0 0 0 0 0 0 0 0 0 0 0 0 0 0 0 0 0 0 0 0 0 0 0 0 0 0 0 0 0 0 0 0
0 0 0 0 0 0 0 0 0 0 0 0 0 0 0 0 0 0 0 0 0 0 0 0 0 0 0 0 0 0 0 0 0 0 0 0 0 0 0 0 0 0 0 0 0 0 0 0 0
0 0 0 0 0 0 0 0 0 0 0 0 0 0 0 0 0 0 0 0 0 0 0 0 0 0 0 0 0 0 0 0 0 0 0 0 0 0 0 0 0 0 0 0 0 0 0 0 0
0 0 0 0 0 0 0 0 0 0 0 0 0 0 0 0 0 0 0 0 0 0 0 0 0 0 0 0 0 0 0 0 0 0 0 0 0 0 0 0 0 0 0 0 0 0 0 0 0
0 0 0 0 0 0 0 0 0 0 0 0 0 0 0 0 0 0 0 0 0 0 0 0 0 0 0 0 0 0 0 0 0 0 0 0 0 0 0 0 0 0 0 0 0 0 0 0 0
0 0 0 0 0 0 0 0 0 0 0 0 0 0 0 0 0 0 0 0 0 0 0 0 0 0 0 0 0 0 0 0 0 0 0 0 0 0 0 0 0 0 0 0 0 0 0 0 0
0 0 0 0 0 0 0 0 0 0 0 0 0 0 0 0 0 0 0 0 0 0 0 0 0 0 0 0 0 0 0 0 0 0 0 0 0 0 0 0 0 0 0 0 0 0 0 0 0
0 0 0 0 0 0 0 0 0 0 0 0 0 0 0 0 0 0 0 0 0 0 0 0 0 0 0 0 0 0 0 0 0 0 0 0 0 0 0 0 0 0 0 0 0 0 0 0 0
0 0 0 0 0 0 0 0 0 0 0 0 0 0 0 0 0 0 0 0 0 0 0 0 0 0 0 0 0 0 0 0 0 0 0 0 0 0 0 0 0 0 0 0 0 0 0 0 0
0 0 0 0 0 0 0 0 0 0 0 0 0 0 0 0 0 0 0 0 0 0 0 0 0 0 0 0 0 0 0 0 0 0 0 0 0 0 0 0 0 0 0 0 0 0 0 0 0
0 0 0 0 0 0 0 0 0 0 0 0 0 0 0 0 0 0 0 0 0 0 0 0 0 0 0 0 0 0 0 0 0 0 0 0 0 0 0 0 0 0 0 0 0 0 0 0 0
0 0 0 0 0 0 0 0 0 0 0 0 0 0 0 0 0 0 0 0 0 0 0 0 0 0 0 0 0 0 0 0 0 0 0 0 0 0 0 0 0 0 0 0 0 0 0 0 0
0 0 0 0 0 0 0 0 0 0 0 0 0 0 0 0 0 0 0 0 0 0 0 0 0 0 0 0 0 0 0 0 0 0 0 0 0 0 0 0 0 0 0 0 0 0 0 0 0
0 0 0 0 0 0 0 0 0 0 0 0 0 0 0 0 0 0 0 0 0 0 0 0 0 0 0 0 0 0 0 0 0 0 0 0 0 0 0 0 0 0 0 0 0 0 0 0 0
0 0 0 0 0 0 0 0 0 0 0 0 0 0 0 0 0 0 0 0 0 0 0 0 0 0 0 0 0 0 0 0 0 0 0 0 0 0 0 0 0 0 0 0 0 0 0 0 0
0 0 0 0 0 0 0 0 0 0 0 0 0 0 0 0 0 0 0 0 0 0 0 0 0 0 0 0 0 0 0 0 0 0 0 0 0 0 0 0 0 0 0 0 0 0 0 0 0
0 0 0 0 0 0 0 0 0 0 0 0 0 0 0 0 0 0 0 0 0 0 0 0 0 0 0 0 0 0 0 0 0 0 0 0 0 0 0 0 0 0 0 0 0 0 0 0 0
0 0 0 0 0 0 0 0 0 0 0 0 0 0 0 0 0 0 0 0 0 0 0 0 0 0 0 0 0 0 0 0 0 0 0 0 0 0 0 0 0 0 0 0 0 0 0 0 0
0 0 0 0 0 0 0 0 0 0 0 0 0 0 0 0 0 0 0 0 0 0 0 0 0 0 0 0 0 0 0 0 0 0 0 0 0 0 0 0 0 0 0 0 0 0 0 0 0
0 0 0 0 0 0 0 0 0 0 0 0 0 0 0 0 0 0 0 0 0 0 0 0 0 0 0 0 0 0 0 0 0 0 0 0 0 0 0 0 0 0 0 0 0 0 0 0 0
0 0 0 0 0 0 0 0 0 0 0 0 0 0 0 0 0 0 0 0 0 0 0 0 0 0 0 0 0 0 0 0 0 0 0 0 0 0 0 0 0 0 0 0 0 0 0 0 0
Wind_Speed
8 10 8 3 4 6 11 10 9 7 4 1 1 2 1 1 2 6 6 10 17 19 18 19 20 19 18 17 16 16 15 15 14 14 14 14 14 14 14 14 14 14 14 15 15 15 15 15 15
9 10 6 4 6 9 10 12 12 6 2 2 3 1 1 4 8 10 8 13 18 18 17 16 20 20 19 18 17 16 16 15 14 14 14 14 14 14 14 14 14 14 14 14 14 14 14 14 14
12 11 5 5 8 11 9 8 9 5 4 4 2 1 1 4 9 9 11 17 17 17 15 17 21 20 19 18 17 16 16 15 15 14 14 14 14 14 14 14 14 13 14 14 13 14 14 13 13
7 5 5 8 14 13 13 8 3 5 4 4 4 3 3 4 5 11 16 17 17 16 15 17 20 20 19 18 17 16 16 15 15 14 14 13 13 14 14 13 13 13 13 13 13 12 12 12 11
6 5 9 12 16 14 11 8 3 5 5 6 6 4 5 5 13 16 15 16 16 16 15 17 19 20 19 18 17 17 16 15 15 14 14 14 13 13 13 13 12 12 12 12 11 11 11 11 10
5 5 9 14 16 15 12 8 5 5 6 7 7 5 5 7 11 12 13 14 14 15 16 15 19 19 19 18 18 17 16 15 15 14 14 14 13 13 12 12 11 11 11 11 10 10 10 9 9
7 7 13 15 13 13 12 9 8 7 7 7 7 6 7 9 11 12 12 13 14 15 16 13 13 14 17 17 17 17 16 15 14 14 14 13 13 12 12 11 11 10 10 9 9 9 8 8 7
7 6 14 16 15 12 9 7 8 7 7 6 6 6 9 13 13 12 11 11 13 13 14 13 12 12 11 11 14 15 14 14 14 14 13 13 12 11 11 10 10 9 9 8 8 7 7 6 5
9 10 15 15 12 10 7 6 5 4 3 3 1 1 12 20 16 13 10 10 12 13 13 13 13 12 11 10 13 12 12 13 13 11 13 11 6 6 7 8 9 9 8 7 7 6 5 4 3
9 12 19 14 11 9 7 6 5 4 5 4 4 8 16 16 16 15 14 14 14 14 14 13 13 12 12 11 10 7 7 8 7 7 8 5 5 5 7 10 9 8 7 7 5 5 4 3 2
11 15 15 16 14 11 9 7 5 7 7 8 10 14 15 14 14 14 14 13 14 14 13 13 13 12 11 8 8 6 5 6 6 8 8 5 5 5 5 4 4 4 5 3 4 3 3 2 2
16 16 17 15 12 10 10 8 7 8 7 6 11 18 18 16 16 16 15 14 13 13 13 12 12 12 11 9 8 7 6 5 5 7 8 5 4 4 5 4 4 4 3 3 3 2 3 2 2
20 19 17 15 12 11 10 11 9 10 7 4 5 16 18 18 16 14 13 13 13 13 13 13 13 12 10 9 7 7 6 6 6 6 6 6 4 4 5 4 4 4 3 3 3 2 2 1 1
13 15 17 16 15 12 12 12 11 11 8 6 6 11 15 16 16 13 13 14 15 15 14 13 13 13 11 8 7 7 6 6 6 6 6 7 5 4 5 4 4 4 3 3 3 2 2 1 1
14 14 15 16 16 14 10 15 16 12 10 9 9 10 12 14 14 14 15 15 16 16 15 13 13 13 12 10 8 6 6 6 6 6 7 7 6 6 5 4 4 3 3 3 2 2 1 1 1
11 13 15 16 16 14 13 17 13 13 13 13 11 11 12 12 14 13 14 13 13 15 16 15 12 13 13 10 9 6 6 7 6 6 6 7 7 7 5 4 4 4 3 3 2 2 1 1 1
11 15 17 16 16 15 17 14 11 13 14 14 12 12 12 13 13 13 14 13 13 15 16 16 14 14 13 11 8 7 6 6 6 6 6 7 8 8 6 4 4 5 3 3 3 2 2 2 1
14 16 17 18 14 17 19 16 11 11 13 14 13 13 12 14 15 13 14 14 13 14 15 16 14 13 12 10 7 6 6 6 5 6 6 8 7 8 6 5 5 5 4 3 3 3 2 2 2
15 17 18 16 13 15 18 18 15 13 12 12 13 13 13 13 13 13 14 14 13 14 15 16 16 14 12 10 10 9 8 7 6 6 8 9 8 9 7 5 6 5 4 5 5 3 3 2 2
19 18 17 13 11 12 13 17 15 16 15 12 12 13 13 12 13 14 14 14 14 15 16 16 17 16 14 11 10 8 7 6 6 5 7 8 9 9 8 7 6 6 5 6 5 4 3 2 3
21 19 16 13 9 8 9 14 16 14 15 14 14 12 12 13 13 13 14 15 14 15 16 15 17 16 15 12 9 7 6 5 6 8 7 8 9 9 9 9 7 7 6 5 6 5 5 4 3
19 18 16 14 10 8 9 9 14 15 16 17 16 14 13 13 12 13 14 15 15 15 15 15 16 16 16 15 13 13 11 10 10 8 7 8 9 9 10 9 8 8 6 6 6 6 5 5 3
14 12 14 13 11 10 11 10 9 13 18 19 17 16 14 13 12 12 13 14 14 14 14 14 15 15 15 15 15 14 11 9 7 7 9 10 9 10 10 10 9 8 7 7 7 6 6 5 5
11 10 9 8 8 14 16 13 9 11 17 17 16 16 16 14 12 11 11 12 12 12 12 13 14 14 15 16 16 15 14 12 11 11 11 10 7 8 11 10 9 9 7 8 7 7 8 6 5
11 8 7 9 10 12 13 13 11 9 11 14 15 15 15 14 13 12 11 12 13 14 14 14 15 14 15 16 16 16 15 14 13 12 11 10 8 8 11 10 10 8 8 8 7 7 7 7 6
14 13 9 7 8 7 12 14 9 11 9 7 8 10 12 13 12 12 12 12 13 15 16 16 16 15 15 16 16 15 14 11 9 11 9 10 9 9 10 11 10 10 9 8 8 6 6 6 6
11 14 10 6 5 5 8 8 8 9 10 8 8 8 9 11 12 11 11 12 13 14 15 16 17 15 15 16 15 14 14 13 11 10 9 8 7 8 10 11 11 10 9 9 8 6 7 6 6
9 7 7 7 6 6 8 12 9 12 12 12 11 10 9 8 9 10 10 11 12 13 13 14 15 15 13 14 14 12 13 13 11 10 10 9 10 9 11 11 11 10 9 9 8 6 6 7 6
8 9 7 6 6 4 4 6 8 10 11 11 10 9 9 9 8 8 8 9 10 11 12 13 14 13 13 14 13 12 12 12 11 10 10 10 9 10 11 11 11 10 10 9 9 8 8 8 7
8 8 8 6 6 5 4 4 2 4 5 6 7 6 7 7 6 7 7 7 8 9 11 12 12 13 13 12 12 12 11 11 11 10 10 10 9 9 10 10 10 9 9 9 9 9 8 8 8
Wind_Direction
247 242 230 230 231 233 239 242 254 244 239 223 17 341 326 8 50 123 157 143 128 137 143 150 148 145 142 138 134 129 126 121 117 113 111 109 105 102 99 96 93 91 90 87 86 83 81 79 78
258 239 227 231 234 233 236 229 243 243 195 74 50 329 292 80 87 115 143 131 134 138 144 148 148 146 143 140 136 133 129 126 122 117 114 111 108 105 101 99 96 93 91 89 87 85 83 81 78
260 247 225 225 231 236 243 220 210 202 138 126 141 251 302 94 119 131 132 133 136 138 144 145 149 146 144 141 138 135 133 130 126 122 118 114 111 106 102 100 98 96 95 92 90 87 85 82 78
245 227 240 239 241 238 248 256 175 154 145 157 171 163 105 46 97 120 130 137 138 138 139 145 150 148 146 144 141 139 136 132 130 127 123 119 115 110 105 102 101 99 98 95 91 88 86 82 78
242 232 228 240 246 251 252 248 213 160 169 185 198 174 102 72 99 120 136 141 140 139 139 147 152 150 147 145 143 141 138 135 133 131 128 123 118 112 109 107 106 104 102 98 95 92 88 83 78
225 228 229 234 241 243 247 245 226 198 194 193 195 183 119 121 120 136 141 141 140 139 139 148 152 150 149 148 146 144 141 139 137 133 130 126 121 119 117 114 112 109 105 101 99 95 90 84 77
233 239 244 247 243 238 232 222 215 207 208 204 189 174 135 143 137 143 143 141 139 139 140 147 151 150 151 150 149 147 146 144 141 138 133 129 127 127 124 121 117 113 109 104 101 96 93 87 80
236 254 250 248 250 248 238 218 215 209 212 205 189 178 157 149 143 144 144 142 140 141 145 150 152 153 152 150 150 148 148 147 144 139 133 131 133 132 130 127 123 120 116 112 109 105 101 98 95
243 240 242 240 243 250 245 231 223 227 224 228 214 83 134 138 144 145 147 145 145 149 151 156 157 157 155 154 153 149 148 148 143 137 137 135 138 135 136 131 132 131 126 123 121 123 126 131 150
219 231 236 245 258 263 250 230 212 205 204 212 108 91 120 140 150 155 160 161 160 161 161 162 161 160 158 158 152 154 154 152 152 149 151 157 157 150 139 136 141 142 141 141 148 167 179 182 186
217 232 241 248 259 274 270 252 218 215 209 201 162 143 145 154 161 167 170 169 165 164 164 165 162 160 159 154 156 159 156 161 166 160 165 168 152 132 125 138 140 146 157 168 175 193 220 198 152
236 236 240 248 254 261 264 263 245 227 226 211 172 157 159 168 175 178 176 172 167 167 168 165 162 161 160 157 159 159 158 166 166 164 168 165 148 148 149 153 160 166 176 175 180 206 204 172 152
236 243 243 246 249 256 261 256 254 243 237 241 173 157 167 176 183 185 179 171 168 171 170 169 166 163 162 158 162 162 162 165 164 162 171 160 150 156 154 161 162 171 170 165 191 206 172 159 132
238 245 248 247 244 244 249 252 246 243 233 222 184 169 175 182 185 183 181 176 175 175 173 172 169 165 162 162 164 162 164 162 159 158 170 162 157 159 156 160 161 167 162 169 186 185 154 161 127
248 251 250 243 240 237 243 247 237 235 232 222 199 186 186 190 188 188 186 182 178 175 173 174 172 167 166 166 169 165 163 160 158 160 171 166 160 159 159 157 160 164 163 169 171 168 132 129 125
238 240 242 235 231 230 226 242 230 224 226 226 212 198 192 196 194 191 188 184 177 171 172 175 175 172 171 170 172 166 164 161 160 161 169 173 167 162 161 159 165 165 160 158 158 151 138 140 158
221 225 228 233 224 223 224 238 232 219 218 222 219 211 197 196 198 193 187 183 177 173 172 173 174 176 174 171 169 166 163 163 162 163 168 176 172 166 163 165 168 164 159 161 164 156 156 163 167
210 220 227 227 216 218 227 233 233 230 218 217 218 218 208 199 198 192 185 182 178 174 172 172 173 177 172 169 168 166 169 171 169 169 173 174 173 169 166 166 172 165 159 165 165 167 170 165 164
238 234 234 235 224 224 230 233 230 231 228 221 218 218 216 207 195 189 183 180 176 174 174 174 175 178 174 175 176 178 181 178 176 176 177 176 175 173 171 171 175 169 170 175 173 166 172 181 151
242 245 246 250 231 229 239 239 232 229 227 222 220 219 216 209 197 190 184 180 180 178 178 177 178 179 179 181 179 179 175 176 176 175 183 182 181 178 179 176 177 175 174 179 182 170 165 182 165
236 238 241 244 252 249 257 253 237 229 227 224 222 220 218 210 202 192 186 184 181 182 180 181 180 180 180 174 167 166 165 168 179 186 190 189 187 183 180 182 179 180 177 183 187 178 171 178 193
235 235 242 242 236 237 220 247 233 220 222 223 220 218 219 216 206 195 188 184 183 183 179 179 179 179 179 174 176 177 181 187 190 185 185 186 190 187 184 183 184 184 182 182 187 184 178 169 187
243 242 242 242 238 245 233 246 244 215 218 219 216 214 213 213 206 199 190 185 181 177 176 178 178 179 178 178 181 183 189 189 179 177 183 189 192 193 191 188 189 187 185 185 187 185 186 181 181
244 245 249 245 235 237 226 230 247 219 217 214 212 210 208 207 205 200 190 179 177 173 172 175 177 180 179 181 184 187 189 185 181 184 186 189 190 193 195 190 190 189 187 188 190 190 188 189 189
219 207 205 204 214 230 210 220 237 228 221 213 209 206 202 200 198 196 189 182 178 175 175 176 178 182 181 183 188 191 191 190 190 187 187 185 188 193 197 192 192 191 189 189 188 190 192 190 190
212 207 213 205 205 217 200 219 227 220 234 224 209 201 195 193 193 193 190 183 180 178 178 178 181 183 183 186 191 192 190 191 193 189 186 188 190 192 189 191 192 192 189 188 188 190 191 189 192
208 215 232 264 260 235 208 220 227 210 216 221 213 206 200 198 194 193 190 184 179 177 179 181 182 184 186 187 189 191 191 192 192 188 184 185 184 182 183 187 189 191 190 189 185 189 190 187 192
215 203 207 218 225 229 224 218 212 198 204 208 209 206 205 196 192 191 188 183 179 178 176 178 182 185 184 186 188 191 192 192 190 186 187 183 182 179 181 186 188 189 190 188 185 184 187 188 193
201 202 212 208 235 221 224 232 204 193 198 201 203 200 200 197 192 187 184 178 171 168 171 176 180 182 184 186 186 186 188 186 187 187 186 182 180 179 180 183 185 187 189 186 186 190 186 191 192
215 204 202 211 225 236 245 265 290 176 178 186 197 197 194 188 183 174 168 160 157 162 169 175 178 181 183 182 181 183 181 180 184 187 183 179 178 178 178 176 179 185 186 185 187 189 187 188 191